| time (UTC) | temp F | wind direction | speed MPH | gust MPH | rain 1hr in | rain 24hr in | rain mn in | humidity % | barometer mb |
| 20260906013458 | 59 | 260 | 7.0 | 0.0 | 0.00 | 0.00 | 0.00 | 82 | 1021.0 |
| 20260906011838 | 59 | 260 | 8.0 | 0.0 | 0.00 | 0.00 | 0.00 | 88 | 1021.0 |
| 20260906010338 | 59 | 260 | 8.0 | 0.0 | 0.00 | 0.00 | 0.00 | 88 | 1021.0 |
| 20260906004958 | 57 | 0 | 0.0 | 0.0 | 0.00 | 0.00 | 0.00 | 94 | 1021.0 |
| 20260906003508 | 57 | 0 | 0.0 | 0.0 | 0.00 | 0.00 | 0.00 | 94 | 1021.0 |
| 20260906001958 | 55 | 260 | 5.0 | 0.0 | 0.00 | 0.00 | 0.00 | 94 | 1021.0 |
| 20260906000448 | 55 | 260 | 5.0 | 0.0 | 0.00 | 0.00 | 0.00 | 94 | 1021.0 |
| 20260905234849 | 55 | 240 | 5.0 | 0.0 | 0.00 | 0.00 | 0.00 | 100 | 1021.0 |
| 20260905233338 | 55 | 240 | 5.0 | 0.0 | 0.00 | 0.00 | 0.00 | 100 | 1021.0 |
| 20260905231958 | 59 | 0 | 0.0 | 0.0 | 0.00 | 0.00 | 0.00 | 94 | 1021.0 |
| 20260905230410 | 59 | 0 | 0.0 | 0.0 | 0.00 | 0.00 | 0.00 | 94 | 1021.0 |
| 20260905224959 | 59 | 180 | 1.0 | 0.0 | 0.00 | 0.00 | 0.00 | 94 | 1021.0 |
| 20260905223352 | 59 | 180 | 1.0 | 0.0 | 0.00 | 0.00 | 0.00 | 94 | 1021.0 |
| 20260905221943 | 57 | 240 | 5.0 | 0.0 | 0.00 | 0.00 | 0.00 | 100 | 1021.0 |
| 20260905220458 | 57 | 240 | 5.0 | 0.0 | 0.00 | 0.00 | 0.00 | 100 | 1021.0 |
| 20260905214957 | 59 | 0 | 0.0 | 0.0 | 0.00 | 0.00 | 0.00 | 100 | 1021.0 |
| 20260905213339 | 59 | 0 | 0.0 | 0.0 | 0.00 | 0.00 | 0.00 | 100 | 1021.0 |
| 20260905211838 | 61 | 0 | 0.0 | 0.0 | 0.00 | 0.00 | 0.00 | 94 | 1020.0 |
| 20260905210338 | 61 | 0 | 0.0 | 0.0 | 0.00 | 0.00 | 0.00 | 94 | 1020.0 |
| 20260905204849 | 63 | 350 | 3.0 | 0.0 | 0.00 | 0.00 | 0.00 | 83 | 1020.0 |
| 20260905203338 | 63 | 350 | 3.0 | 0.0 | 0.00 | 0.00 | 0.00 | 83 | 1020.0 |
| 20260905201838 | 64 | 340 | 3.0 | 0.0 | 0.00 | 0.00 | 0.00 | 83 | 1020.0 |
| 20260905200458 | 64 | 340 | 3.0 | 0.0 | 0.00 | 0.00 | 0.00 | 83 | 1020.0 |
| 20260905194950 | 66 | 350 | 3.0 | 0.0 | 0.00 | 0.00 | 0.00 | 73 | 1020.0 |
| 20260905193339 | 66 | 350 | 3.0 | 0.0 | 0.00 | 0.00 | 0.00 | 73 | 1020.0 |
| 20260905191907 | 72 | 320 | 7.0 | 0.0 | 0.00 | 0.00 | 0.00 | 50 | 1020.0 |
| 20260905190340 | 72 | 320 | 7.0 | 0.0 | 0.00 | 0.00 | 0.00 | 50 | 1020.0 |
| 20260905184836 | 72 | 330 | 5.0 | 0.0 | 0.00 | 0.00 | 0.00 | 47 | 1019.0 |
| 20260905183344 | 72 | 330 | 5.0 | 0.0 | 0.00 | 0.00 | 0.00 | 47 | 1019.0 |
| 20260905181835 | 72 | 350 | 6.0 | 0.0 | 0.00 | 0.00 | 0.00 | 47 | 1019.0 |
| 20260905180335 | 72 | 350 | 6.0 | 0.0 | 0.00 | 0.00 | 0.00 | 47 | 1019.0 |
| 20260905174835 | 73 | 350 | 8.0 | 0.0 | 0.00 | 0.00 | 0.00 | 41 | 1019.0 |
| 20260905173338 | 73 | 350 | 8.0 | 0.0 | 0.00 | 0.00 | 0.00 | 41 | 1019.0 |
| 20260905171846 | 75 | 330 | 10.0 | 0.0 | 0.00 | 0.00 | 0.00 | 36 | 1018.0 |
| 20260905170339 | 75 | 330 | 10.0 | 0.0 | 0.00 | 0.00 | 0.00 | 36 | 1018.0 |
| 20260905164838 | 77 | 320 | 14.0 | 0.0 | 0.00 | 0.00 | 0.00 | 44 | 1018.0 |
| 20260905163340 | 77 | 320 | 14.0 | 0.0 | 0.00 | 0.00 | 0.00 | 44 | 1018.0 |
| 20260905161837 | 82 | 330 | 16.0 | 0.0 | 0.00 | 0.00 | 0.00 | 32 | 1017.0 |
| 20260905160339 | 82 | 330 | 16.0 | 0.0 | 0.00 | 0.00 | 0.00 | 32 | 1017.0 |
| 20260905154852 | 84 | 350 | 11.0 | 0.0 | 0.00 | 0.00 | 0.00 | 31 | 1016.0 |
| 20260905153338 | 84 | 350 | 11.0 | 0.0 | 0.00 | 0.00 | 0.00 | 31 | 1016.0 |
| 20260905151839 | 84 | 340 | 13.0 | 0.0 | 0.00 | 0.00 | 0.00 | 29 | 1016.0 |
| 20260905150339 | 84 | 340 | 13.0 | 0.0 | 0.00 | 0.00 | 0.00 | 29 | 1016.0 |
| 20260905143338 | 86 | 350 | 16.0 | 0.0 | 0.00 | 0.00 | 0.00 | 31 | 1016.0 |
| 20260905141836 | 88 | 350 | 16.0 | 0.0 | 0.00 | 0.00 | 0.00 | 29 | 1016.0 |
| 20260905140335 | 88 | 350 | 16.0 | 0.0 | 0.00 | 0.00 | 0.00 | 29 | 1016.0 |
| 20260905134955 | 88 | 340 | 17.0 | 0.0 | 0.00 | 0.00 | 0.00 | 33 | 1016.0 |
| 20260905133339 | 88 | 340 | 17.0 | 0.0 | 0.00 | 0.00 | 0.00 | 33 | 1016.0 |
| 20260905131841 | 88 | 350 | 17.0 | 0.0 | 0.00 | 0.00 | 0.00 | 38 | 1016.0 |
| 20260905130400 | 88 | 350 | 17.0 | 0.0 | 0.00 | 0.00 | 0.00 | 38 | 1016.0 |
| 20260905123339 | 90 | 350 | 17.0 | 0.0 | 0.00 | 0.00 | 0.00 | 33 | 1015.0 |
| 20260905121906 | 90 | 350 | 18.0 | 0.0 | 0.00 | 0.00 | 0.00 | 33 | 1015.0 |
| 20260905120339 | 90 | 350 | 18.0 | 0.0 | 0.00 | 0.00 | 0.00 | 33 | 1015.0 |
| 20260905114839 | 93 | 280 | 9.0 | 0.0 | 0.00 | 0.00 | 0.00 | 28 | 1015.0 |
| 20260905113338 | 93 | 280 | 9.0 | 0.0 | 0.00 | 0.00 | 0.00 | 28 | 1015.0 |
| 20260905111857 | 93 | 270 | 9.0 | 0.0 | 0.00 | 0.00 | 0.00 | 30 | 1015.0 |
| 20260905110338 | 93 | 270 | 9.0 | 0.0 | 0.00 | 0.00 | 0.00 | 30 | 1015.0 |
| 20260905104839 | 91 | 270 | 11.0 | 0.0 | 0.00 | 0.00 | 0.00 | 30 | 1015.0 |
| 20260905103338 | 91 | 270 | 11.0 | 0.0 | 0.00 | 0.00 | 0.00 | 30 | 1015.0 |
| 20260905101838 | 91 | 240 | 10.0 | 0.0 | 0.00 | 0.00 | 0.00 | 30 | 1015.0 |
| 20260905100339 | 91 | 240 | 10.0 | 0.0 | 0.00 | 0.00 | 0.00 | 30 | 1015.0 |
| 20260905094958 | 88 | 240 | 10.0 | 0.0 | 0.00 | 0.00 | 0.00 | 33 | 1015.0 |
| 20260905093338 | 88 | 240 | 10.0 | 0.0 | 0.00 | 0.00 | 0.00 | 33 | 1015.0 |
| 20260905091838 | 88 | 230 | 13.0 | 0.0 | 0.00 | 0.00 | 0.00 | 31 | 1015.0 |
| 20260905090338 | 88 | 230 | 13.0 | 0.0 | 0.00 | 0.00 | 0.00 | 31 | 1015.0 |
| 20260905084838 | 84 | 220 | 13.0 | 0.0 | 0.00 | 0.00 | 0.00 | 35 | 1015.0 |
| 20260905083338 | 84 | 220 | 13.0 | 0.0 | 0.00 | 0.00 | 0.00 | 35 | 1015.0 |
| 20260905081838 | 84 | 220 | 11.0 | 0.0 | 0.00 | 0.00 | 0.00 | 35 | 1016.0 |
| 20260905080339 | 84 | 220 | 11.0 | 0.0 | 0.00 | 0.00 | 0.00 | 35 | 1016.0 |
| 20260905074838 | 81 | 200 | 13.0 | 0.0 | 0.00 | 0.00 | 0.00 | 39 | 1015.0 |
| 20260905073347 | 81 | 200 | 13.0 | 0.0 | 0.00 | 0.00 | 0.00 | 39 | 1015.0 |
| 20260905071839 | 79 | 200 | 13.0 | 0.0 | 0.00 | 0.00 | 0.00 | 42 | 1015.0 |
| 20260905070338 | 79 | 200 | 13.0 | 0.0 | 0.00 | 0.00 | 0.00 | 42 | 1015.0 |
| 20260905064839 | 77 | 190 | 14.0 | 0.0 | 0.00 | 0.00 | 0.00 | 44 | 1015.0 |
| 20260905063339 | 77 | 190 | 14.0 | 0.0 | 0.00 | 0.00 | 0.00 | 44 | 1015.0 |
| 20260905061839 | 75 | 180 | 11.0 | 0.0 | 0.00 | 0.00 | 0.00 | 47 | 1016.0 |
| 20260905060339 | 75 | 180 | 11.0 | 0.0 | 0.00 | 0.00 | 0.00 | 47 | 1016.0 |
| 20260905054839 | 72 | 160 | 11.0 | 0.0 | 0.00 | 0.00 | 0.00 | 50 | 1015.0 |
| 20260905053339 | 72 | 160 | 11.0 | 0.0 | 0.00 | 0.00 | 0.00 | 50 | 1015.0 |
| 20260905051838 | 70 | 170 | 10.0 | 0.0 | 0.00 | 0.00 | 0.00 | 53 | 1015.0 |
| 20260905050339 | 70 | 170 | 10.0 | 0.0 | 0.00 | 0.00 | 0.00 | 53 | 1015.0 |
| 20260905044839 | 68 | 160 | 10.0 | 0.0 | 0.00 | 0.00 | 0.00 | 56 | 1015.0 |
| 20260905043338 | 68 | 160 | 10.0 | 0.0 | 0.00 | 0.00 | 0.00 | 56 | 1015.0 |
| 20260905041839 | 68 | 160 | 10.0 | 0.0 | 0.00 | 0.00 | 0.00 | 56 | 1015.0 |
| 20260905040338 | 68 | 160 | 10.0 | 0.0 | 0.00 | 0.00 | 0.00 | 56 | 1015.0 |
| 20260905034839 | 68 | 170 | 8.0 | 0.0 | 0.00 | 0.00 | 0.00 | 56 | 1015.0 |
| 20260905033338 | 68 | 170 | 8.0 | 0.0 | 0.00 | 0.00 | 0.00 | 56 | 1015.0 |
| 20260905031839 | 68 | 160 | 9.0 | 0.0 | 0.00 | 0.00 | 0.00 | 56 | 1015.0 |
| 20260905030339 | 68 | 160 | 9.0 | 0.0 | 0.00 | 0.00 | 0.00 | 56 | 1015.0 |
| 20260905024851 | 66 | 160 | 8.0 | 0.0 | 0.00 | 0.00 | 0.00 | 60 | 1015.0 |
| 20260905023339 | 66 | 160 | 8.0 | 0.0 | 0.00 | 0.00 | 0.00 | 60 | 1015.0 |
| 20260905021839 | 66 | 150 | 9.0 | 0.0 | 0.00 | 0.00 | 0.00 | 60 | 1015.0 |
| 20260905020339 | 66 | 150 | 9.0 | 0.0 | 0.00 | 0.00 | 0.00 | 60 | 1015.0 |
| 20260905014839 | 68 | 150 | 9.0 | 0.0 | 0.00 | 0.00 | 0.00 | 56 | 1015.0 |